TimeEST,TemperatureF,Dew PointF,Humidity,Sea Level PressureIn,VisibilityMPH,Wind Direction,Wind SpeedMPH,Gust SpeedMPH,PrecipitationIn,Events,Conditions,WindDirDegrees,DateUTC
12:40 AM,42.8,39.2,87,29.84,7.0,SSE,6.9,-,0.06,Rain,Light Rain,160,2012-12-29 05:40:00
12:53 AM,42.1,39.9,92,29.83,7.0,SSE,8.1,-,0.06,Rain,Light Rain,150,2012-12-29 05:53:00
1:53 AM,41.0,39.9,96,29.80,4.0,South,5.8,-,0.03,Rain,Light Rain,190,2012-12-29 06:53:00
2:08 AM,41.0,39.2,93,29.80,4.0,South,4.6,-,0.00,,Overcast,170,2012-12-29 07:08:00
2:53 AM,41.0,39.9,96,29.81,3.0,SW,3.5,-,0.01,Rain,Light Rain,230,2012-12-29 07:53:00
3:46 AM,39.2,39.2,100,29.85,3.0,West,3.5,-,0.02,Rain,Light Rain,260,2012-12-29 08:46:00
3:53 AM,41.0,39.9,96,29.84,4.0,West,3.5,-,0.02,,Overcast,260,2012-12-29 08:53:00
4:28 AM,41.0,41.0,100,29.84,3.0,Calm,Calm,-,N/A,,Overcast,0,2012-12-29 09:28:00
4:35 AM,41.0,41.0,100,29.84,4.0,Calm,Calm,-,N/A,,Overcast,0,2012-12-29 09:35:00
4:50 AM,41.0,39.2,93,29.82,6.0,Calm,Calm,-,N/A,,Overcast,0,2012-12-29 09:50:00
4:53 AM,39.9,39.9,100,29.82,5.0,SE,3.5,-,N/A,,Overcast,130,2012-12-29 09:53:00
5:41 AM,41.0,39.2,93,29.83,5.0,Calm,Calm,-,N/A,,Overcast,0,2012-12-29 10:41:00
5:53 AM,41.0,41.0,100,29.83,3.0,Calm,Calm,-,N/A,,Overcast,0,2012-12-29 10:53:00
6:26 AM,41.0,39.2,93,29.85,5.0,Calm,Calm,-,N/A,,Overcast,0,2012-12-29 11:26:00
6:53 AM,41.0,39.2,93,29.86,4.0,SSW,3.5,-,N/A,,Overcast,210,2012-12-29 11:53:00
7:03 AM,41.0,39.2,93,29.87,6.0,SSW,3.5,-,N/A,,Overcast,210,2012-12-29 12:03:00
7:37 AM,42.8,39.2,87,29.89,10.0,West,9.2,-,N/A,,Overcast,270,2012-12-29 12:37:00
7:53 AM,42.1,39.9,92,29.90,10.0,West,8.1,-,N/A,,Overcast,280,2012-12-29 12:53:00
8:03 AM,42.8,39.2,87,29.90,10.0,West,8.1,-,N/A,,Overcast,270,2012-12-29 13:03:00
8:26 AM,41.0,37.4,87,29.92,10.0,West,11.5,-,N/A,,Overcast,270,2012-12-29 13:26:00
8:45 AM,41.0,35.6,81,29.94,10.0,West,8.1,-,N/A,,Overcast,280,2012-12-29 13:45:00
8:53 AM,41.0,36.0,82,29.94,10.0,West,12.7,18.4,N/A,,Overcast,280,2012-12-29 13:53:00
9:23 AM,41.0,37.4,87,29.95,10.0,WNW,5.8,-,N/A,,Overcast,290,2012-12-29 14:23:00
9:33 AM,41.0,35.6,81,29.95,10.0,WNW,9.2,-,N/A,,Overcast,290,2012-12-29 14:33:00
9:53 AM,42.1,37.0,82,29.96,10.0,WNW,9.2,-,N/A,,Overcast,290,2012-12-29 14:53:00
10:16 AM,41.0,35.6,81,29.97,10.0,WNW,6.9,-,N/A,,Overcast,290,2012-12-29 15:16:00
10:53 AM,39.9,37.0,89,29.99,10.0,West,8.1,-,0.00,,Overcast,270,2012-12-29 15:53:00
11:05 AM,39.2,35.6,87,30.00,8.0,West,8.1,18.4,0.00,Rain,Light Rain,280,2012-12-29 16:05:00
11:53 AM,39.0,35.1,86,30.01,10.0,West,8.1,-,0.00,,Overcast,270,2012-12-29 16:53:00
12:53 PM,39.0,33.1,79,30.01,10.0,WNW,8.1,21.9,0.00,,Overcast,290,2012-12-29 17:53:00
1:04 PM,39.2,33.8,81,30.01,10.0,West,10.4,-,N/A,,Overcast,280,2012-12-29 18:04:00
1:50 PM,37.4,33.8,87,30.00,5.0,West,9.2,19.6,0.00,Rain,Light Rain,280,2012-12-29 18:50:00
1:53 PM,37.0,35.1,93,30.01,5.0,West,9.2,19.6,0.01,Rain,Light Rain,280,2012-12-29 18:53:00
2:12 PM,37.4,33.8,87,30.01,6.0,WNW,10.4,20.7,0.00,Rain,Light Rain,290,2012-12-29 19:12:00
2:24 PM,37.4,33.8,87,30.01,10.0,WNW,6.9,17.3,0.00,,Overcast,290,2012-12-29 19:24:00
2:53 PM,37.0,32.0,82,30.03,10.0,WNW,11.5,18.4,0.00,Rain,Light Rain,290,2012-12-29 19:53:00
3:38 PM,37.4,30.2,75,30.06,10.0,WNW,8.1,-,0.00,,Overcast,290,2012-12-29 20:38:00
3:53 PM,37.0,30.0,76,30.06,10.0,NW,6.9,-,0.00,,Overcast,310,2012-12-29 20:53:00
4:53 PM,37.0,30.0,76,30.10,10.0,WNW,6.9,-,0.00,,Overcast,290,2012-12-29 21:53:00
5:53 PM,36.0,30.0,79,30.12,10.0,West,5.8,-,N/A,,Overcast,280,2012-12-29 22:53:00
6:50 PM,35.6,30.2,81,30.15,10.0,WNW,9.2,17.3,N/A,,Overcast,290,2012-12-29 23:50:00
6:53 PM,36.0,28.9,76,30.15,10.0,NW,9.2,17.3,N/A,,Overcast,310,2012-12-29 23:53:00
7:53 PM,37.0,28.9,73,30.18,10.0,NW,8.1,-,N/A,,Overcast,310,2012-12-30 00:53:00
8:40 PM,35.6,28.4,75,30.20,10.0,WNW,6.9,-,N/A,,Overcast,300,2012-12-30 01:40:00
8:53 PM,36.0,28.9,76,30.21,10.0,WNW,9.2,-,N/A,,Overcast,300,2012-12-30 01:53:00
9:53 PM,36.0,28.0,73,30.24,10.0,NW,6.9,-,N/A,,Overcast,310,2012-12-30 02:53:00
10:45 PM,35.6,26.6,70,30.26,10.0,WNW,8.1,19.6,N/A,,Overcast,300,2012-12-30 03:45:00
10:53 PM,35.1,27.0,72,30.27,10.0,WNW,11.5,19.6,N/A,,Overcast,300,2012-12-30 03:53:00
11:05 PM,35.6,26.6,70,30.26,10.0,NW,9.2,19.6,N/A,,Overcast,320,2012-12-30 04:05:00
11:53 PM,35.1,26.1,70,30.29,10.0,NW,6.9,-,N/A,,Overcast,310,2012-12-30 04:53:00